Flag Weather past 2 weeks in Mersin, Turkey

Now
52 °F

Fog.


Feels Like: 47 °F
Forecast: 48 / 58 °F
Wind: 16 mph from Northeast

Location: Adana / Sakirpasa

Current Time: Nov 26, 2014 at 1:50:07 AM

Latest Report: Nov 26, 2014 at 1:20 AM


Visibility: 3 mi

Pressure: 29.71 "Hg

Humidity: 82%

Dew point: 46 °F

Location of MersinLocation

Historic Weather in Mersin — Graph

°F

Mersin temperature yesterday

Maximum temperature yesterday: 61 °F (at 12:50 PM)
Minimum temperature yesterday: 46 °F (at 1:50 AM)
Average temperature yesterday: 53 °F

Past Weeks' High & Low Weather Summary

 TemperatureHumidityPressure
High81 °F (Nov 11, 1:20 PM)94% (Nov 18, 11:20 PM)30.24 "Hg (Nov 18, 11:20 PM)
Low41 °F (Nov 23, 5:20 AM)14% (Nov 11, 1:20 PM)29.71 "Hg (Nov 26, 12:50 AM)
Average60 °F56%29.98 "Hg
* Reported Nov 11 12:20 AM — Nov 26 12:50 AM, Mersin, Weather by CustomWeather, © 2014

Note: Actual official high and low records may vary slightly from our data, if they occured in-between our weather recording intervals... More about our weather records

Advertising

Mersin weather history for previous 24 hours

 ConditionsComfort  
Time TempWeatherWind HumidityBarometerVisibility
12:50 AM
Nov 26
52 °FSprinkles. Fog.16 mph82%29.71 "Hg3 mi
12:20 AM52 °FSprinkles. Fog.12 mph82%29.74 "Hg3 mi
11:50 PM
Nov 25
52 °FSprinkles. Fog.17 mph82%29.74 "Hg3 mi
11:20 PM50 °FSprinkles. Fog.21 mph88%29.74 "Hg3 mi
10:50 PM50 °FSprinkles. Fog.13 mph94%29.77 "Hg3 mi
10:20 PM52 °FSprinkles. Fog.12 mph88%29.80 "Hg3 mi
9:50 PM52 °FSprinkles. Fog.16 mph88%29.77 "Hg3 mi
9:20 PM52 °FSprinkles. Fog.18 mph88%29.77 "Hg3 mi
8:50 PM52 °FSprinkles. Fog.14 mph94%29.80 "Hg3 mi
8:20 PM52 °FSprinkles. Fog.13 mph94%29.83 "Hg3 mi
7:50 PM52 °FThunderstorms. Fog.8 mph94%29.83 "Hg3 mi
7:20 PM54 °FThunderstorms. Fog.10 mph88%29.83 "Hg3 mi
6:50 PM54 °FThunderstorms. Fog.10 mph88%29.83 "Hg3 mi
6:20 PM54 °FMixture of precip. Fog.7 mph88%29.86 "Hg3 mi
5:50 PM52 °FMixture of precip. Fog.7 mph94%29.86 "Hg3 mi
5:20 PM52 °FMixture of precip. Fog.5 mph94%29.86 "Hg3 mi
4:50 PM52 °FThunderstorms. Fog.5 mph88%29.86 "Hg3 mi
4:20 PM54 °FMixture of precip. Fog.3 mph82%29.86 "Hg3 mi
3:50 PM54 °FMixture of precip. Fog.6 mph82%29.86 "Hg3 mi
3:20 PM57 °FMixture of precip. Broken clouds.5 mph67%29.83 "Hg3 mi
2:50 PM59 °FSprinkles. Broken clouds.5 mph59%29.86 "Hg4 mi
2:20 PM59 °FSprinkles. Broken clouds.5 mph55%29.86 "Hg4 mi
1:50 PM59 °FSprinkles. Broken clouds.8 mph55%29.86 "HgN/A
1:20 PM61 °FSprinkles. Broken clouds.7 mph45%29.89 "HgN/A
12:50 PM61 °FBroken clouds.6 mph45%29.89 "HgN/A
12:20 PM59 °FBroken clouds.7 mph48%29.92 "HgN/A
11:50 AM59 °FBroken clouds.8 mph48%29.92 "HgN/A
11:20 AM57 °FBroken clouds.5 mph51%29.92 "HgN/A
10:50 AM57 °FBroken clouds.7 mph48%29.95 "HgN/A
10:20 AM57 °FBroken clouds.6 mph48%29.95 "HgN/A
9:50 AM57 °FBroken clouds.7 mph44%29.98 "HgN/A
9:20 AM55 °FBroken clouds.8 mph47%29.98 "HgN/A
8:50 AM55 °FBroken clouds.6 mph47%29.98 "Hg3 mi
8:20 AM54 °FBroken clouds.5 mph54%29.98 "Hg3 mi
7:50 AM54 °FBroken clouds.5 mph51%29.98 "Hg3 mi
7:20 AM54 °FBroken clouds.3 mph54%29.98 "Hg3 mi
6:50 AM54 °FBroken clouds.6 mph54%29.98 "Hg3 mi
6:20 AM52 °FPartly cloudy.3 mph54%29.98 "Hg3 mi
5:50 AM52 °FPartly cloudy.5 mph54%29.98 "Hg3 mi
5:20 AM54 °FPartly cloudy.6 mph51%29.98 "Hg3 mi
4:50 AM50 °FPartly cloudy.5 mph62%29.98 "Hg3 mi
4:20 AM50 °FPartly cloudy.No wind58%29.98 "Hg3 mi
3:50 AM50 °FPartly cloudy.5 mph58%29.98 "Hg3 mi
3:20 AM48 °FPartly cloudy.3 mph62%29.98 "Hg3 mi
2:50 AM46 °FPartly cloudy.1 mph66%29.98 "Hg3 mi
2:20 AM46 °FPartly cloudy.No wind66%29.98 "Hg3 mi
1:50 AM46 °FPartly cloudy.1 mph62%29.98 "Hg3 mi
1:20 AM48 °FPartly cloudy.3 mph54%29.98 "Hg3 mi
Weather by CustomWeather, © 2014

See weather overviewHow to use our weather pages